This demonstration page uses our WeatherBlox Daily Observations layout. Learn more.

Left ArrowRight Arrow

47.50024, -111.30081

Hourly Observations for April 3, 2020

Temp ( °F °C ) Dew Point ( °F °C ) Humidity (%) Winds ( mph kmh ) Pressure ( in mb ) Visibility ( mi km ) Precip ( " mm )
12:53 am 00:53 Cloudy 10 -12.2 4 -15.6 76 76 Calm 30.32 1027 10 16 0.00 0.00
1:53 am 01:53 Mostly Clear 9 -12.8 4 -15.6 80 80 Calm 30.31 1026 10 16 0.00 0.00
2:53 am 02:53 Clear 8 -13.3 3 -16.1 80 80 SSE 5 7 30.28 1025 10 16 0.00 0.00
3:53 am 03:53 Clear 5 -15 1 -17.2 83 83 SSW 3 6 30.26 1025 10 16 0.00 0.00
4:53 am 04:53 Clear 6 -14.4 1 -17.2 79 79 Calm 30.24 1024 10 16 0.00 0.00
5:53 am 05:53 Clear 7 -13.9 2 -16.7 80 80 Calm 30.22 1023 10 16 0.00 0.00
6:53 am 06:53 Clear 5 -15 0 -17.8 79 79 Calm 30.22 1023 10 16 0.00 0.00
7:53 am 07:53 Sunny 8 -13.3 4 -15.6 83 83 SSW 3 6 30.21 1023 10 16 0.00 0.00
8:53 am 08:53 Sunny 15 -9.4 9 -12.8 77 77 Calm 30.18 1022 10 16 0.00 0.00
9:53 am 09:53 Sunny 23 -5 15 -9.4 72 72 Calm 30.15 1021 10 16 0.00 0.00
10:53 am 10:53 Sunny 29 -1.7 18 -7.8 63 63 SSW 8 13 30.11 1020 10 16 0.00 0.00
11:53 am 11:53 Mostly Cloudy 36 2.2 22 -5.6 57 57 SSW 15 24 30.07 1018 10 16 0.00 0.00
12:53 pm 12:53 Partly Cloudy 38 3.3 19 -7.2 46 46 SW 15 24 30.04 1017 10 16 0.00 0.00
1:53 pm 13:53 Mostly Cloudy 39 3.9 17 -8.3 41 41 SW 16 26 30.01 1016 10 16 0.00 0.00
2:53 pm 14:53 Sunny 42 5.6 16 -8.9 35 35 SW 16 26 29.99 1016 10 16 0.00 0.00
3:53 pm 15:53 Cloudy with Light Snow 38 3.3 23 -5 55 55 SSE 9 15 30.00 1016 2 3 0.00 0.00
4:03 pm 16:03 Mostly Cloudy 42 5.6 19 -7.2 40 40 SW 15 24 29.85 1011 9 14 0.00 0.00
4:53 pm 16:53 Sunny 42 5.6 12 -11.1 29 29 SW 15 24 29.95 1014 10 16 0.00 0.00
5:53 pm 17:53 Partly Cloudy 41 5 16 -8.9 36 36 SW 16 26 29.94 1014 10 16 0.00 0.00
6:53 pm 18:53 Sunny 37 2.8 23 -5 57 57 SSE 10 17 29.95 1014 10 16 0.00 0.00
7:53 pm 19:53 Sunny 33 0.6 22 -5.6 64 64 S 5 7 29.94 1014 10 16 0.00 0.00
8:53 pm 20:53 Partly Cloudy 32 0 21 -6.1 64 64 S 8 13 29.92 1013 10 16 0.00 0.00
9:53 pm 21:53 Cloudy 32 0 22 -5.6 66 66 ESE 5 7 29.89 1012 10 16 0.00 0.00
10:53 pm 22:53 Mostly Cloudy 30 -1.1 21 -6.1 69 69 W 3 6 29.88 1012 10 16 0.00 0.00
11:53 pm 23:53 Cloudy 31 -0.6 22 -5.6 69 69 WNW 8 13 29.85 1011 10 16 0.00 0.00

Powered by AerisWeather